| time (UTC) | temp C | wind direction | speed KPH | gust KPH | rain 1hr cm | rain 24hr cm | rain mn cm | humidity % | barometer mb |
| 20260902113052 | 26 | 230 | 1.6 | 9.7 | 0.00 | 0.05 | 0.00 | 92 | 1011.9 |
| 20260902111548 | 26 | 257 | 0.0 | 6.4 | 0.00 | 0.05 | 0.00 | 92 | 1011.8 |
| 20260902110046 | 26 | 259 | 0.0 | 6.4 | 0.00 | 0.05 | 0.00 | 92 | 1011.8 |
| 20260902104612 | 26 | 229 | 0.0 | 6.4 | 0.00 | 0.05 | 0.00 | 92 | 1011.9 |
| 20260902103044 | 26 | 260 | 0.0 | 4.8 | 0.00 | 0.05 | 0.00 | 91 | 1012.0 |
| 20260902101544 | 26 | 173 | 1.6 | 14.5 | 0.00 | 0.05 | 0.00 | 92 | 1011.8 |
| 20260902100105 | 26 | 171 | 1.6 | 8.0 | 0.00 | 0.05 | 0.00 | 91 | 1011.6 |
| 20260902094543 | 26 | 240 | 0.0 | 4.8 | 0.00 | 0.05 | 0.00 | 91 | 1011.6 |
| 20260902093042 | 26 | 175 | 1.6 | 8.0 | 0.00 | 0.05 | 0.00 | 91 | 1011.7 |
| 20260902091542 | 26 | 223 | 0.0 | 4.8 | 0.00 | 0.05 | 0.00 | 91 | 1011.5 |
| 20260902090043 | 26 | 187 | 0.0 | 4.8 | 0.00 | 0.05 | 0.00 | 91 | 1011.4 |
| 20260902084539 | 26 | 225 | 0.0 | 4.8 | 0.00 | 0.05 | 0.00 | 90 | 1011.5 |
| 20260902083041 | 26 | 226 | 0.0 | 6.4 | 0.00 | 0.05 | 0.00 | 90 | 1011.5 |
| 20260902081558 | 27 | 243 | 3.2 | 9.7 | 0.00 | 0.05 | 0.00 | 90 | 1011.5 |
| 20260902080046 | 27 | 219 | 0.0 | 11.3 | 0.00 | 0.05 | 0.00 | 90 | 1011.7 |
| 20260902074539 | 26 | 213 | 0.0 | 8.0 | 0.00 | 0.05 | 0.00 | 90 | 1011.7 |
| 20260902073036 | 27 | 182 | 1.6 | 6.4 | 0.00 | 0.05 | 0.00 | 90 | 1011.7 |
| 20260902071538 | 27 | 236 | 1.6 | 6.4 | 0.00 | 0.05 | 0.00 | 90 | 1011.8 |
| 20260902070037 | 27 | 213 | 0.0 | 8.0 | 0.00 | 0.05 | 0.00 | 90 | 1011.7 |
| 20260902064535 | 27 | 252 | 1.6 | 6.4 | 0.00 | 0.05 | 0.00 | 89 | 1011.7 |
| 20260902063040 | 27 | 192 | 3.2 | 14.5 | 0.00 | 0.05 | 0.00 | 89 | 1011.7 |
| 20260902061534 | 27 | 206 | 1.6 | 8.0 | 0.00 | 0.05 | 0.00 | 89 | 1011.7 |
| 20260902060036 | 27 | 202 | 1.6 | 8.0 | 0.00 | 0.05 | 0.00 | 89 | 1011.7 |
| 20260902054535 | 27 | 245 | 1.6 | 8.0 | 0.00 | 0.05 | 0.00 | 88 | 1011.5 |
| 20260902053031 | 27 | 231 | 0.0 | 8.0 | 0.00 | 0.05 | 0.00 | 88 | 1011.7 |
| 20260902051528 | 27 | 267 | 0.0 | 6.4 | 0.00 | 0.05 | 0.00 | 87 | 1011.8 |
| 20260902050026 | 27 | 243 | 0.0 | 9.7 | 0.00 | 0.05 | 0.00 | 87 | 1011.8 |
| 20260902044538 | 27 | 192 | 1.6 | 8.0 | 0.00 | 0.05 | 0.05 | 87 | 1011.8 |
| 20260902043025 | 27 | 209 | 0.0 | 4.8 | 0.00 | 0.05 | 0.05 | 86 | 1011.8 |
| 20260902041526 | 27 | 241 | 0.0 | 4.8 | 0.00 | 0.05 | 0.05 | 87 | 1011.8 |
| 20260902040025 | 26 | 228 | 0.0 | 3.2 | 0.00 | 0.05 | 0.05 | 87 | 1011.9 |
| 20260902034524 | 26 | 250 | 0.0 | 4.8 | 0.00 | 0.05 | 0.05 | 87 | 1011.9 |
| 20260902033023 | 26 | 252 | 0.0 | 4.8 | 0.00 | 0.05 | 0.05 | 87 | 1011.9 |
| 20260902031535 | 26 | 258 | 0.0 | 1.6 | 0.00 | 0.05 | 0.05 | 86 | 1011.7 |
| 20260902030022 | 26 | 258 | 0.0 | 1.6 | 0.00 | 0.05 | 0.05 | 86 | 1011.4 |
| 20260902024522 | 26 | 216 | 0.0 | 3.2 | 0.00 | 0.05 | 0.05 | 86 | 1011.2 |
| 20260902023022 | 26 | 265 | 0.0 | 3.2 | 0.00 | 0.05 | 0.05 | 86 | 1011.1 |
| 20260902021530 | 26 | 239 | 0.0 | 4.8 | 0.00 | 0.05 | 0.05 | 86 | 1010.8 |
| 20260902020020 | 27 | 258 | 0.0 | 4.8 | 0.00 | 0.05 | 0.05 | 85 | 1010.8 |
| 20260902014541 | 27 | 267 | 0.0 | 8.0 | 0.00 | 0.05 | 0.05 | 85 | 1010.6 |
| 20260902013018 | 27 | 244 | 1.6 | 4.8 | 0.00 | 0.05 | 0.05 | 85 | 1010.4 |
| 20260902011518 | 27 | 236 | 0.0 | 4.8 | 0.00 | 0.05 | 0.05 | 84 | 1010.2 |
| 20260902010020 | 27 | 246 | 0.0 | 6.4 | 0.00 | 0.05 | 0.05 | 83 | 1010.1 |
| 20260902004521 | 27 | 247 | 4.8 | 9.7 | 0.00 | 0.05 | 0.05 | 82 | 1010.3 |
| 20260902003015 | 27 | 278 | 3.2 | 9.7 | 0.00 | 0.05 | 0.05 | 82 | 1010.5 |
| 20260902001514 | 28 | 332 | 1.6 | 11.3 | 0.00 | 0.05 | 0.05 | 81 | 1010.6 |
| 20260902000018 | 28 | 325 | 4.8 | 12.9 | 0.00 | 0.05 | 0.05 | 81 | 1010.6 |
| 20260901234533 | 28 | 323 | 1.6 | 9.7 | 0.00 | 0.05 | 0.05 | 82 | 1010.5 |
| 20260901233013 | 28 | 322 | 3.2 | 14.5 | 0.00 | 0.05 | 0.05 | 82 | 1010.5 |
| 20260901231512 | 28 | 345 | 4.8 | 11.3 | 0.00 | 0.05 | 0.05 | 82 | 1010.6 |
| 20260901230014 | 28 | 315 | 3.2 | 11.3 | 0.00 | 0.05 | 0.05 | 84 | 1010.7 |
| 20260901224511 | 28 | 335 | 3.2 | 14.5 | 0.00 | 0.05 | 0.05 | 83 | 1011.0 |
| 20260901223012 | 28 | 319 | 4.8 | 16.1 | 0.00 | 0.05 | 0.05 | 82 | 1010.8 |
| 20260901221534 | 28 | 318 | 4.8 | 12.9 | 0.00 | 0.05 | 0.05 | 83 | 1010.8 |
| 20260901220013 | 28 | 278 | 4.8 | 14.5 | 0.00 | 0.05 | 0.05 | 83 | 1010.6 |
| 20260901214507 | 28 | 278 | 4.8 | 11.3 | 0.00 | 0.05 | 0.05 | 82 | 1010.9 |
| 20260901213005 | 28 | 300 | 4.8 | 12.9 | 0.00 | 0.05 | 0.05 | 81 | 1011.2 |
| 20260901211506 | 29 | 305 | 3.2 | 11.3 | 0.00 | 0.05 | 0.05 | 80 | 1011.4 |
| 20260901210009 | 28 | 252 | 3.2 | 11.3 | 0.00 | 0.15 | 0.05 | 81 | 1011.4 |
| 20260901204508 | 28 | 252 | 6.4 | 14.5 | 0.00 | 0.15 | 0.05 | 81 | 1011.2 |
| 20260901203004 | 28 | 308 | 6.4 | 14.5 | 0.00 | 0.15 | 0.05 | 82 | 1011.1 |
| 20260901201506 | 28 | 277 | 8.0 | 16.1 | 0.00 | 0.15 | 0.05 | 82 | 1011.2 |
| 20260901200100 | 28 | 263 | 4.8 | 12.9 | 0.03 | 0.15 | 0.05 | 82 | 1011.5 |
| 20260901194556 | 27 | 331 | 6.4 | 12.9 | 0.03 | 0.15 | 0.05 | 82 | 1012.0 |
| 20260901193106 | 27 | 261 | 6.4 | 12.9 | 0.03 | 0.15 | 0.05 | 83 | 1012.1 |
| 20260901191554 | 27 | 279 | 4.8 | 12.9 | 0.03 | 0.15 | 0.05 | 84 | 1012.2 |
| 20260901190054 | 28 | 311 | 3.2 | 6.4 | 0.00 | 0.13 | 0.03 | 83 | 1012.5 |
| 20260901184557 | 28 | 345 | 3.2 | 6.4 | 0.00 | 0.13 | 0.03 | 84 | 1012.7 |
| 20260901183056 | 28 | 307 | 3.2 | 9.7 | 0.00 | 0.13 | 0.03 | 83 | 1012.7 |
| 20260901181553 | 28 | 348 | 4.8 | 11.3 | 0.03 | 0.13 | 0.03 | 82 | 1012.8 |
| 20260901180052 | 28 | 340 | 6.4 | 14.5 | 0.03 | 0.13 | 0.03 | 83 | 1012.8 |
| 20260901174553 | 28 | 346 | 4.8 | 12.9 | 0.03 | 0.13 | 0.03 | 83 | 1013.0 |
| 20260901173050 | 28 | 293 | 3.2 | 8.0 | 0.03 | 0.13 | 0.03 | 83 | 1013.3 |
| 20260901171557 | 28 | 344 | 3.2 | 9.7 | 0.00 | 0.10 | 0.00 | 82 | 1013.6 |
| 20260901170050 | 28 | 352 | 1.6 | 11.3 | 0.00 | 0.10 | 0.00 | 81 | 1014.0 |
| 20260901164549 | 29 | 344 | 4.8 | 14.5 | 0.00 | 0.10 | 0.00 | 78 | 1014.0 |
| 20260901163050 | 29 | 352 | 3.2 | 12.9 | 0.00 | 0.10 | 0.00 | 78 | 1014.1 |
| 20260901161548 | 30 | 36 | 1.6 | 12.9 | 0.00 | 0.10 | 0.00 | 78 | 1014.1 |
| 20260901160056 | 30 | 360 | 4.8 | 16.1 | 0.00 | 0.10 | 0.00 | 78 | 1014.0 |
| 20260901154544 | 29 | 9 | 3.2 | 12.9 | 0.00 | 0.10 | 0.00 | 79 | 1013.8 |
| 20260901153042 | 29 | 25 | 4.8 | 14.5 | 0.00 | 0.10 | 0.00 | 79 | 1013.6 |
| 20260901151539 | 28 | 25 | 6.4 | 12.9 | 0.00 | 0.10 | 0.00 | 80 | 1013.6 |
| 20260901150036 | 28 | 352 | 4.8 | 14.5 | 0.00 | 0.10 | 0.00 | 81 | 1013.5 |
| 20260901144531 | 28 | 34 | 3.2 | 11.3 | 0.00 | 0.10 | 0.00 | 82 | 1013.5 |
| 20260901143031 | 28 | 331 | 4.8 | 11.3 | 0.00 | 0.10 | 0.00 | 82 | 1013.5 |
| 20260901141527 | 28 | 352 | 4.8 | 12.9 | 0.00 | 0.10 | 0.00 | 83 | 1013.6 |
| 20260901140023 | 27 | 329 | 4.8 | 11.3 | 0.00 | 0.10 | 0.00 | 85 | 1013.5 |
| 20260901134534 | 27 | 325 | 4.8 | 11.3 | 0.00 | 0.10 | 0.00 | 85 | 1013.3 |
| 20260901133019 | 27 | 325 | 3.2 | 9.7 | 0.00 | 0.10 | 0.00 | 86 | 1013.5 |
| 20260901131517 | 27 | 344 | 1.6 | 11.3 | 0.00 | 0.10 | 0.00 | 87 | 1013.4 |
| 20260901130015 | 27 | 338 | 1.6 | 9.7 | 0.00 | 0.10 | 0.00 | 87 | 1013.2 |
| 20260901124511 | 27 | 346 | 3.2 | 9.7 | 0.00 | 0.10 | 0.00 | 88 | 1013.1 |
| 20260901123012 | 27 | 46 | 1.6 | 4.8 | 0.00 | 0.10 | 0.00 | 88 | 1013.0 |
| 20260901121512 | 27 | 344 | 0.0 | 4.8 | 0.00 | 0.10 | 0.00 | 88 | 1012.7 |
| 20260901120007 | 27 | 336 | 1.6 | 6.4 | 0.00 | 0.10 | 0.00 | 88 | 1012.5 |
| 20260901114508 | 27 | 27 | 1.6 | 4.8 | 0.00 | 0.10 | 0.00 | 88 | 1012.5 |